Weather Roundup
Issued by NWS Chicago, IL

Home | Current Version | Previous Version | Text Only | Print | Product List | Glossary Off
Versions: 1 2 3 4 5 6 7 8 9 10 11 12 13 14 15 16 17 18 19 20 21 22 23 24 25 26 27 28 29 30 31 32 33 34 35 36 37 38 39 40 41 42 43 44 45 46 47 48 49 50

000
NZUS59 KLOT 192103
HRRLOT

CHICAGO AREA WEATHER ROUNDUP
NATIONAL WEATHER SERVICE CHICAGO/ROMEOVILLE IL
300 PM CST THU JAN 19 2017

NOTE: "FAIR" INDICATES FEW OR NO CLOUDS BELOW 12,000 FEET WITH NO
SIGNIFICANT WEATHER AND/OR OBSTRUCTIONS TO VISIBILITY.

* THESE STATIONS ARE NOT UNDER NWS QUALITY CONTROL. THEY ALSO MAY NOT
  REPORT WEATHER SUCH AS PRECIPITATION OR FOG.

ILZ005-006-012>014-019>023-192200-
NORTHEAST ILLINOIS

CITY           SKY/WX    TMP DP  RH WIND       PRES   REMARKS
OHARE          CLOUDY    41  36  82 E9        29.88F HAZE
MIDWAY         CLOUDY    41  35  79 E9        29.88F
AURORA         CLOUDY    41  37  86 E6        29.87F FOG
LANSING*       CLOUDY    40  38  95 E8        29.89F FOG
JOLIET*        CLOUDY    42  39  91 SE7       29.88F FOG
WAUKEGAN       FOG       36  34  92 SE8       29.90F VSB 1
DUPAGE AIRPORT PTSUNNY   42  35  76 E5        29.86F
WHEELING       PTSUNNY   41  35  79 E3        29.90F HAZE
KANKAKEE*      DRIZZLE   42  38  86 CALM      29.88F
MORRIS*        LGT RAIN  40  38  91 SE3       29.87S
LEWIS AIRPORT* CLOUDY    40  39  96 E5        29.87F FOG
NORTHERLY ISL    N/A     35  33  92 CALM        N/A
$$

WIZ051-052-058>065-066-070>072-192200-
SOUTHEAST WISCONSIN

CITY           SKY/WX    TMP DP  RH WIND       PRES   REMARKS
MILWAUKEE      CLOUDY    37  34  89 SE6       29.90F FOG
KENOSHA*       MOSUNNY   38  35  89 SE7       29.89F FOG
RACINE*        FOG       35  33  92 S12       29.92S VSB 1/2 WCI  27
WAUKESHA       MOSUNNY   36  34  93 SE5       29.90F FOG
$$

INZ001>003-010>013-019-020-192200-
NORTHWEST INDIANA

CITY           SKY/WX    TMP DP  RH WIND       PRES   REMARKS
GARY*          CLOUDY    43  36  75 E9        29.90F HAZE
MICHIGAN CITY* NOT AVBL
RENSSELAER*    NOT AVBL
VALPARAISO     CLOUDY    40  37  89 E8        29.90F FOG
$$

LMZ740>746-192200-
SOUTHERN LAKE MICHIGAN

STATION/POSITION TIME  SKY/WX   TEMP WIND        PRES    VSBY
                                AIR  DIR/SP/G
                 (UTC)          (F)  (DEG/KT/KT) (MB)    (MI)
HARRISON CRIB    2040            37  120/ 12/ 12   N/A
BURNHAM HARBOR   2100            35   CALM  /  3   N/A
CALUMET HARBOR   2030            37   90/  4/  5 1012.3F
BURNS HARBOR     2040            40  160/  3/  5 1013.5F
MICHIGAN CITY    2040            40   90/  7/  8   N/A
$$

ABBREVIATIONS USED IN REMARKS
   TC - TEMPERATURE IN CELSIUS
  WCI - WIND CHILL INDEX
   HX - HEAT INDEX
  VSB - VISIBILITY
$$




USA.gov is the U.S. government's official web portal to all federal, state and local government web resources and services.